Other Public Products
Issued by NWS Grand Forks, ND

Home | Current Version | Previous Version | Graphics & Text | Print | Product List | Glossary On
Versions: 1 2 3 4 5 6 7 8 9 10 11 12 13 14 15 16 17 18 19 20 21 22 23 24 25 26 27 28 29 30 31 32 33 34 35 36 37 38 39 40 41 42 43 44 45 46 47 48 49 50
000
FPUS83 KFGF 281710
OPUFGF
PRAIRIE TO PINES WEATHER ROUNDUP
NATIONAL WEATHER SERVICE EASTERN NORTH DAKOTA/GRAND FORKS ND
1200 PM CDT THU MAY 28 2015

 **SATELLITE DATA USED TO AUGMENT SKY COVER AT AUTOMATED STATIONS**
 *****  WEATHER ACROSS EASTERN NORTH DAKOTA  *****

CITY           SKY/WX    TMP DP  RH WIND       PRES   REMARKS
GRAND FORKS    PTSUNNY   69  61  75 S10       29.86F
GRAND FORKS AF MOSUNNY   70  60  69 S15       29.86F
GRAND CITY NWS   N/A     70 N/A N/A S13         N/A
BUXTON         NOT AVBL
DEVILS LAKE    PTSUNNY   70  57  64 SW12      29.85S
FARGO          PTSUNNY   74  63  68 S15       29.87F
WAHPETON ARPT  CLOUDY    77  55  47 S22G31    29.91S
$$

 *****  WEATHER ACROSS CENTRAL AND WESTERN NORTH DAKOTA  *****

CITY           SKY/WX    TMP DP  RH WIND       PRES   REMARKS
JAMESTOWN      PTSUNNY   73  61  65 S13       29.85S
BISMARCK       CLOUDY    69  59  70 SW5       29.87S
MINOT          PTSUNNY   67  55  65 W6        29.85S
MINOT AFB      CLOUDY    69  69  97 W7        29.84S
GARRISON         N/A     68  59  73 W9        29.85
WILLISTON      PTSUNNY   67  56  67 N12       29.90R
DICKINSON      PTSUNNY   70  56  61 W12       29.89S
HETTINGER      PTSUNNY   69  57  65 NW8       29.92F
$$

 *****  OTHER OBSERVATIONS NORTHEAST NORTH DAKOTA  *****

CITY           SKY/WX    TMP DP  RH WIND       PRES   REMARKS
WALHALLA         N/A     64  64 100 MISG      29.87F
LANGDON        CLOUDY    70  59  68 S13       29.87S
CAVALIER       CLOUDY    66  61  82 SE7       29.87F
GRAFTON        CLOUDY    68  63  83 S7        29.87F
CANDO          CLOUDY    66  59  77 S6        29.86S
FORT TOTTEN    NOT AVBL
ROLLA          CLOUDY    63  63 100 SW6       29.87F
RUGBY          NOT AVBL
 ***** THE ABOVE OBSERVATIONS ARE NON NWS ARE NOT QUALITY
        CONTROLLED AND MAY MIS-REPORT RAIN FOR SNOW...
$$

 *****  OTHER OBSERVATIONS SOUTHEAST NORTH DAKOTA *****

CITY           SKY/WX    TMP DP  RH WIND       PRES   REMARKS
COOPERSTOWN    NOT AVBL
VALLEY CITY    FAIR      73  64  73 S14G23    29.86F
OAKES            N/A     75  64  69 S22G28    29.87S
GWINNER        NOT AVBL
BUFFALO        NOT AVBL
WYNDMERE         N/A     79  61  53 S22         N/A
 ***** THE ABOVE OBSERVATIONS ARE NON NWS ARE NOT QUALITY
       CONTROLLED AND MAY MIS-REPORT RAIN FOR SNOW...
$$

  *****  WEATHER ACROSS NORTHERN MINNESOTA  *****

CITY           SKY/WX    TMP DP  RH WIND       PRES   REMARKS
FLAG ISLAND    DRIZZLE   55  54  94 E10G16    29.90F
WARROAD        CLOUDY    59  55  88 SE7       29.92F
ROSEAU         CLOUDY    61  54  77 SE9       29.91S
HALLOCK        PTSUNNY   66  63  88 SE12      29.87F
THF RVR FALLS  CLOUDY    63  59  88 SE9       29.91S
HALSTAD        NOT AVBL
FOSSTON        LGT RAIN  61  57  88 E3        29.91F
BAUDETTE       LGT RAIN  56  54  93 SE12      29.93F FOG
WASKISH        CLOUDY    57  55  94 CALM      29.97S
CROOKSTON      MOSUNNY   68  63  83 S9        29.89S
$$
  *****  WEATHER ACROSS CENTRAL AND WEST MINNESOTA  *****

CITY           SKY/WX    TMP DP  RH WIND       PRES   REMARKS
BEMIDJI        CLOUDY    63  56  78 SE8       29.94F
PARK RAPIDS    PTSUNNY   82  56  40 S16G28    29.94F
WADENA         MOSUNNY   79  55  44 SW17G28   29.95S
DETROIT LAKES  CLOUDY    73  59  60 SW21G30   29.93F
MOORHEAD       PTSUNNY   73  61  64 S13G20    29.89F
FERGUS FALLS   PTSUNNY   75  57  53 SW24G31   29.93F
ELBOW LAKE     FAIR      74  58  58 S25G33    29.95F
MORRIS MN      PTSUNNY   73  59  60 S22       29.96S
STAPLES        MOSUNNY   79  55  44 S12G26    29.97F
WHEATON        PTSUNNY   72  57  60 S20G28    29.94F
$$
  *****  WEATHER ELSEWHERE ACROSS MINNESOTA  *****

CITY           SKY/WX    TMP DP  RH WIND       PRES   REMARKS
DULUTH         PTSUNNY   50  44  80 SE14      30.08S
INTRNTL FALLS  LGT RAIN  56  53  90 SE8       29.99F
ELY            NOT AVBL
CLOQUET        PTSUNNY   52  43  71 E10       30.07S
BRAINERD       PTSUNNY   76  57  51 S15G24    29.99S
HIBBING        CLOUDY    66  51  58 S9        30.02F
ALEXANDRIA     MOSUNNY   77  55  46 S21G30    30.00S
SAINT CLOUD    MOSUNNY   80  54  40 SW18G25   30.01S
MINNEAPOLIS    MOSUNNY   81  52  36 SW13G22   30.05S
$$

  *****  WEATHER ACROSS SOUTH DAKOTA  *****

CITY           SKY/WX    TMP DP  RH WIND       PRES   REMARKS
SIOUX FALLS    PTSUNNY   77  58  51 S15G23    29.99F
BROOKINGS      PTSUNNY   68  59  73 SE13      30.01F
WATERTOWN      MOSUNNY   72  60  66 S28G35    29.96F
HURON            N/A    N/A N/A N/A MISG      29.90F
SISSETON         N/A     77  57  50 SW21G29   29.90F
ABERDEEN       SUNNY     77  61  57 S18G29    29.88F
MITCHELL       SUNNY     79  62  56 S21G29    29.93F
PIERRE         SUNNY     75  59  57 S8        29.87S
MOBRIDGE       MOSUNNY   71  61  70 CALM      29.85S
RAPID CITY     MOSUNNY   70  53  54 NE13G22   29.95R
$$

  *****  SOME WEATHER IN NEARBY STATES *****

CITY           SKY/WX    TMP DP  RH WIND       PRES   REMARKS
GLASGOW MT     MOSUNNY   70  52  52 N12G17    29.93S
GREAT FALLS MT RAIN      51  49  92 N5        30.11R FOG
CHEYENNE WY    PTSUNNY   63  38  39 W16G23    30.08R
SCOTTSBLUFF NE MOSUNNY   71  54  54 NW12      30.00S
OMAHA NE       CLOUDY    70  60  70 SE13      30.03R
DES MOINES IA  CLOUDY    78  59  51 S17       30.09S
DAVENPORT IA   SUNNY     80  56  43 SE17      30.16S
CHICAGO IL     PTSUNNY   79  54  41 SE9       30.19F
EAU CLAIRE WI  SUNNY     81  56  42 S15       30.08S
LA CROSSE WI   MOSUNNY   81  61  50 S7        30.10F
$$

  *****  SOME NATIONAL WEATHER *****

CITY           SKY/WX    TMP DP  RH WIND       PRES   REMARKS
LA GUARDIA NY  PTSUNNY   80  66  62 S10       30.14F
RALEIGH NC     PTSUNNY   83  70  64 VRB6      30.23F
ATLANTA GA     MOSUNNY   80  67  64 E5        30.22F
NEW ORLEANS LA PTSUNNY   85  72  65 N6        30.11S HX  91
OKLAHOMA CITY  CLOUDY    72  65  78 SE10      30.07R
ALBUQUERQUE NM MOSUNNY   73  31  21 W5        30.15S
SALT LAKE CITY MOSUNNY   63  45  51 S5        30.11S
LOS ANGELES CA CLOUDY    62  55  77 CALM      30.01S
BOISE ID       SUNNY     66  43  43 VRB6      30.10S
SEATTLE WA     SUNNY     64  54  69 W5        30.09S
$$

*** WEATHER ACROSS MANITOBA...SASKATCHEWAN AND ONTARIO ***
                ***ONTARIO***

CITY           SKY/WX    TMP DP  RH WIND       PRES   REMARKS
GERALDTON      PTSUNNY   55  34  44 S10       30.20F
THUNDER BAY    DRIZZLE   48  43  81 SE16      30.18F
SIOUX LOOKOUT  LGT RAIN  55  45  67 SE7       30.04F
TORONTO        MOSUNNY   75  50  41 N15G21    30.24S
BIG TROUT LK   SUNNY     52  32  46 SE6       30.17F
PICKLE LAKE    CLOUDY    54  30  40 SE17      30.12F
DRYDEN         RAIN      52  50  93 E5        30.03S FOG
KENORA         LGT RAIN  54  54 100 E12       29.93F FOG
$$
                *** MANITOBA***

CITY           SKY/WX    TMP DP  RH WIND       PRES   REMARKS
BRANDON        LGT RAIN  59  55  88 E6        29.89F
DAUPHIN        RAIN      52  48  87 SE6       29.89S
ISLAND LAKE    PTSUNNY   61  34  36 E7G18     29.97F
PILOT MOUND    NOT AVBL
THE PAS        CLOUDY    45  43  93 N9        29.96R
THOMPSON       LGT SNOW  36  34  93 NE12G18   30.06S FOG
WINNIPEG       LGT RAIN  57  55  94 E7        29.89F FOG
LYNN LAKE      LGT SNOW  32  30  93 NE21G29   30.16R WCI  20
CHURCHILL      CLOUDY    34  21  60 NE9       30.37R
GILLAM         LGT SNOW  32  28  86 E9G21     30.21F WCI  24
$$
                ***SASKATCHEWAN***

CITY           SKY/WX    TMP DP  RH WIND       PRES   REMARKS
ESTEVAN        CLOUDY    61  57  88 NE6       29.91R FOG
KINDERSLEY     CLOUDY    46  43  87 N24       30.13R
LLOYDMINSTER   LGT RAIN  45  36  70 N21       30.22R
PRINCE ALBERT  PTSUNNY   43  37  81 N22G29    30.11R
REGINA         PTSUNNY   70  52  52 NW9       29.91F
YORKTON        MOSUNNY   70  52  52 W7G18     29.86F



USA.gov is the U.S. government's official web portal to all federal, state and local government web resources and services.